This is the latest recevied weather packets stored in our database for station/object KG7BDA. If no packets are shown the sender has not sent any weather packets the latest 10 day(s).
| Time | Temp. | Humidity | Pressure | Rain* | Wind** | Luminosity | Snow |
|---|---|---|---|---|---|---|---|
| 1777993502 | 15° C | 45% | 1011.5 hPa | 0 mm | - | - | - |
| 1777993400 | 15° C | 45% | 1011.5 hPa | 0 mm | - | - | - |
| 1777993040 | 15° C | 45% | 1011.4 hPa | 0 mm | - | - | - |
| 1777992680 | 15° C | 48% | 1011.2 hPa | 0 mm | - | - | - |
| 1777992320 | 15° C | 47% | 1011.2 hPa | 0 mm | - | - | - |
| 1777992002 | 14.44° C | 48% | 1011.2 hPa | 0 mm | - | - | - |
| 1777991960 | 14.44° C | 48% | 1011.2 hPa | 0 mm | - | - | - |
| 1777991600 | 14.44° C | 49% | 1011.2 hPa | 0 mm | - | - | - |
| 1777991240 | 14.44° C | 51% | 1011 hPa | 0 mm | - | - | - |
| 1777990880 | 14.44° C | 52% | 1011.1 hPa | 0 mm | - | - | - |
| 1777990520 | 14.44° C | 50% | 1011 hPa | 0 mm | - | - | - |
| 1777989800 | 13.33° C | 55% | 1010.6 hPa | 0 mm | - | - | - |
| 1777989440 | 12.78° C | 61% | 1010.4 hPa | 0 mm | - | - | - |
| 1777989080 | 12.22° C | 65% | 1010.4 hPa | 0 mm | - | - | - |
| 1777988720 | 12.22° C | 58% | 1010.2 hPa | 0 mm | - | - | - |
| 1777988360 | 12.22° C | 62% | 1010.2 hPa | 0 mm | - | - | - |
| 1777988000 | 12.22° C | 58% | 1010.1 hPa | 0 mm | - | - | - |
| 1777987640 | 11.67° C | 59% | 1010 hPa | 0 mm | - | - | - |
| 1777987360 | 11.11° C | 63% | 1009.8 hPa | 0 mm | - | - | - |
| 1777987280 | 11.11° C | 63% | 1009.8 hPa | 0 mm | - | - | - |
| 1777986920 | 10° C | 68% | 1009.8 hPa | 0 mm | - | - | - |
| 1777986560 | 8.89° C | 71% | 1009.7 hPa | 0 mm | - | - | - |
| 1777986200 | 9.44° C | 69% | 1009.5 hPa | 0 mm | - | - | - |
| 1777985952 | 8.89° C | 71% | 1009.4 hPa | 0 mm | - | - | - |
| 1777985839 | 8.89° C | 71% | 1009.4 hPa | 0 mm | - | - | - |
* Rain latest hour (hover to see other rain measurements)
** Current wind speed in m/s (hover to see current wind gust speed)